Regional Weather Roundup
Issued by NWS State College, PA

Current Version | Previous Version | Text Only | Print | Product List | Glossary On
Versions: 1 2 3 4 5 6 7 8 9 10 11 12 13 14 15 16 17 18 19 20 21 22 23 24 25 26 27 28 29 30 31 32 33 34 35 36 37 38 39 40 41 42 43 44 45 46 47 48 49 50
000
ASUS41 KCTP 010610
RWRCTP

REGIONAL WEATHER ROUNDUP
NATIONAL WEATHER SERVICE STATE COLLEGE PA
200 AM EDT MON MAY 01 2017

Note: "fair" indicates few or no clouds below 12,000 feet with no
significant weather and/or obstructions to visibility.

* = STATION THAT DOES NOT REPORT PRECIPITATION /E.G. RAIN...SNOW...ETC/
    THUNDER OR FOG.

PAZ002>004-007>009-013>016-020>023-029>032-010700-
WESTERN PENNSYLVANIA

CITY           SKY/WX    TMP DP  RH WIND       PRES   REMARKS
ERIE           PTCLDY    58  53  84 SE8       29.76F
MEADVILLE      CLOUDY    71  60  68 VRB3      29.80F
FRANKLIN*      CLOUDY    68  61  77 S13       29.84F
NEW CASTLE     FAIR      73  59  61 S7        29.81F
BEAVER COUNTY  NOT AVBL
BUTLER*        MOCLDY    73  57  56 S9        29.85F
PITTSBURGH INT MOCLDY    75  58  55 S7        29.84F
PITTSBURGH     CLOUDY    73  55  53 S9        29.85F
INDIANA*       CLEAR     72  64  78 S8        29.91F
LATROBE        CLOUDY    75  55  50 S9        29.88F
WASHINGTON CO* MOCLDY    73  55  53 S7        29.87F
$$

PAZ004>006-010>012-017>019-024>028-033>037-041-042-045-046-049>053-010700-
CENTRAL PENNSYLVANIA

CITY           SKY/WX    TMP DP  RH WIND       PRES   REMARKS
BRADFORD       PTCLDY    64  62  93 S10       29.90F
DUBOIS         CLOUDY    66  61  84 SE8       29.89F
CLEARFIELD     CLOUDY    64  60  87 E3        29.94F
JOHNSTOWN      CLEAR     66  61  84 SE12      29.94F
ALTOONA        CLEAR     67  61  81 CALM      29.96F
STATE COLLEGE  CLOUDY    62  54  76 SW6       29.96F
WILLIAMSPORT   CLOUDY    59  47  64 NE16G24   29.97F
SELINSGROVE    CLOUDY    56  49  77 E6        30.02F
FT INDIANTOWN  CLOUDY    52  52 100 E3        30.04F
CAPITAL CITY   CLOUDY    57  51  80 E9        30.02F
HARRISBURG     CLOUDY    57  52  83 E9        30.02F
YORK           CLOUDY    59  57  93 E7        30.01F
$$

PAZ038>040-043-044-047-048-054-055-060>062-067>071-010700-
EASTERN PENNSYLVANIA

CITY           SKY/WX    TMP DP  RH WIND       PRES   REMARKS
SCRANTON       CLOUDY    54  49  83 VRB5      30.02F
MOUNT POCONO   FOG       44  44 100 SE7       30.06F VSB 3/4
ALLENTOWN      CLOUDY    51  46  83 E9        30.08F
QUAKERTOWN*    CLOUDY    50  50 100 E5        30.08F
READING        CLOUDY    52  51  97 CALM      30.05F
LANCASTER      CLOUDY    54  52  93 E8        30.04F
COATESVILLE    FOG       52  52 100 E8G15     30.06F VSB 1/2
POTTSTOWN      CLOUDY    49  49 100 VRB6      30.08F FOG
BLUE BELL      CLOUDY    48  48 100 E7        30.08F
DOYLESTOWN     CLOUDY    49  49 100 CALM      30.07F
WILLOW GROVE   NOT AVBL
NORTH PHILA    CLOUDY    52  50  93 E9        30.09F FOG
PHILADELPHIA   CLOUDY    52  50  93 NE7       30.07F
$$



USA.gov is the U.S. government's official web portal to all federal, state and local government web resources and services.